Weather History for Warroad, MN

Change the Weather History Date:

Saturday, June 15, 2013

  Actual Average Record
Temperature  
Mean Temperature 68 °F -  
Max Temperature 78 °F 70 °F 86 °F (1973)
Min Temperature 57 °F 50 °F 36 °F (1961)
Cooling Degree Days 2    
Growing Degree Days 18 (Base 50)    
Moisture  
Dew Point 53 °F    
Average Humidity 62    
Maximum Humidity 94    
Minimum Humidity 32    
Precipitation  
Precipitation 0.00 in - - ()
Sea Level Pressure  
Sea Level Pressure 29.80 in    
Wind  
Wind Speed 9 mph (WSW)    
Max Wind Speed 23 mph    
Max Gust Speed 32 mph    
Visibility 10 miles    
Events Rain    
Averages and records for this station are not official NWS values.
T = Trace of Precipitation, MM = Missing Value Source: NWS Daily Summary

Daily Weather History Graph

Daily Weather History Graph

Search for Another Location

Airport:

Trip Planner

Search our weather history database for the weather conditions in past years. The results will help you decide how hot, cold, wet, or windy it might be!

Date:

Astronomy

Jun. 15, 2013 Rise Set
Actual Time 5:16 AM CDT 9:27 PM CDT
Civil Twilight 4:34 AM CDT 10:09 PM CDT
Nautical Twilight 3:33 AM CDT 11:10 PM CDT
Astronomical Twilight 1:54 AM CDT 12:49 AM CDT
Moon 12:24 PM CDT (6/15) 12:33 AM CDT (6/15)
Length of Visible Light 17h 35m
Length of Day
16h 10m
Waxing Crescent, 40% of the Moon is Illuminated
Jun 15
Waxing Crescent
Jun 16
First Quarter
Jun 23
Full
Jun 29
Last Quarter
Jul 8
New

Hourly Weather History & Observations

Time (CDT) Temp. Dew Point Humidity Pressure Visibility Wind Dir Wind Speed Gust Speed Precip Events Conditions
12:14 AM 66.2 °F 60.8 °F 83% 29.81 in 10.0 mi SSE 9.2 mph - N/A   Overcast
12:34 AM 66.2 °F 60.8 °F 83% 29.81 in 10.0 mi South 8.1 mph - N/A   Overcast
12:53 AM 66.2 °F 60.8 °F 83% 29.81 in 10.0 mi South 10.4 mph - N/A Rain Light Rain
1:14 AM 64.4 °F 60.8 °F 88% 29.80 in 10.0 mi South 5.8 mph - N/A   Overcast
1:34 AM 64.4 °F 60.8 °F 88% 29.79 in 10.0 mi South 6.9 mph - N/A   Scattered Clouds
1:53 AM 64.4 °F 60.8 °F 88% 29.79 in 10.0 mi South 8.1 mph - N/A   Scattered Clouds
2:14 AM 62.6 °F 59.0 °F 88% 29.79 in 10.0 mi South 5.8 mph - N/A   Clear
2:34 AM 62.6 °F 59.0 °F 88% 29.78 in 10.0 mi South 6.9 mph - N/A   Clear
2:53 AM 62.6 °F 59.0 °F 88% 29.79 in 10.0 mi South 5.8 mph - N/A   Mostly Cloudy
3:14 AM 64.4 °F 60.8 °F 88% 29.80 in 10.0 mi SW 6.9 mph - N/A   Mostly Cloudy
3:33 AM 64.4 °F 60.8 °F 88% 29.80 in 10.0 mi WSW 5.8 mph - N/A   Mostly Cloudy
3:54 AM 62.6 °F 60.8 °F 94% 29.81 in 10.0 mi SW 5.8 mph - N/A   Mostly Cloudy
4:14 AM 62.6 °F 60.8 °F 94% 29.82 in 10.0 mi WSW 9.2 mph - N/A   Overcast
4:33 AM 62.6 °F 55.4 °F 77% 29.83 in 10.0 mi West 9.2 mph 17.3 mph N/A   Mostly Cloudy
4:54 AM 60.8 °F 53.6 °F 77% 29.84 in 10.0 mi West 8.1 mph - N/A   Scattered Clouds
5:14 AM 59.0 °F 53.6 °F 82% 29.84 in 10.0 mi West 8.1 mph - N/A   Clear
5:33 AM 57.2 °F 53.6 °F 88% 29.84 in 10.0 mi West 6.9 mph - N/A   Clear
5:54 AM 57.2 °F 51.8 °F 82% 29.84 in 10.0 mi West 8.1 mph - N/A   Clear
6:14 AM 57.2 °F 51.8 °F 82% 29.85 in 10.0 mi WSW 5.8 mph - N/A   Clear
6:33 AM 57.2 °F 53.6 °F 88% 29.85 in 10.0 mi WSW 5.8 mph - N/A   Clear
6:54 AM 57.2 °F 53.6 °F 88% 29.85 in 10.0 mi WSW 3.5 mph - N/A   Clear
7:14 AM 59.0 °F 53.6 °F 82% 29.86 in 10.0 mi WSW 4.6 mph - N/A   Clear
7:33 AM 60.8 °F 53.6 °F 77% 29.85 in 10.0 mi West 6.9 mph - N/A   Clear
7:54 AM 62.6 °F 53.6 °F 72% 29.86 in 10.0 mi WSW 6.9 mph - N/A   Clear
8:14 AM 62.6 °F 53.6 °F 72% 29.86 in 10.0 mi West 10.4 mph - N/A   Clear
8:33 AM 62.6 °F 53.6 °F 72% 29.87 in 10.0 mi WSW 5.8 mph - N/A   Clear
8:54 AM 62.6 °F 53.6 °F 72% 29.87 in 10.0 mi WSW 6.9 mph - N/A   Clear
9:14 AM 64.4 °F 53.6 °F 68% 29.86 in 10.0 mi WSW 6.9 mph - N/A   Clear
9:33 AM 64.4 °F 53.6 °F 68% 29.86 in 10.0 mi WSW 8.1 mph - N/A   Clear
9:54 AM 66.2 °F 53.6 °F 64% 29.85 in 10.0 mi WSW 8.1 mph - N/A   Clear
10:14 AM 68.0 °F 53.6 °F 60% 29.84 in 10.0 mi WSW 9.2 mph - N/A   Clear
10:33 AM 69.8 °F 53.6 °F 56% 29.85 in 10.0 mi WSW 9.2 mph - N/A   Clear
10:54 AM 69.8 °F 55.4 °F 60% 29.84 in 10.0 mi WSW 9.2 mph - N/A   Clear
11:14 AM 69.8 °F 53.6 °F 56% 29.83 in 10.0 mi SW 10.4 mph - N/A   Clear
11:34 AM 71.6 °F 51.8 °F 50% 29.83 in 10.0 mi West 11.5 mph 18.4 mph N/A   Clear
11:54 AM 73.4 °F 51.8 °F 47% 29.83 in 10.0 mi WSW 13.8 mph 18.4 mph N/A   Clear
12:14 PM 73.4 °F 50.0 °F 44% 29.83 in 10.0 mi West 12.7 mph 21.9 mph N/A   Clear
12:34 PM 73.4 °F 51.8 °F 47% 29.82 in 10.0 mi West 15.0 mph - N/A   Clear
12:54 PM 73.4 °F 51.8 °F 47% 29.82 in 10.0 mi WSW 13.8 mph 18.4 mph N/A   Scattered Clouds
1:14 PM 75.2 °F 51.8 °F 44% 29.82 in 10.0 mi WSW 11.5 mph 16.1 mph N/A   Scattered Clouds
1:34 PM 75.2 °F 50.0 °F 41% 29.81 in 10.0 mi WSW 17.3 mph 25.3 mph N/A   Clear
1:54 PM 77.0 °F 50.0 °F 39% 29.81 in 10.0 mi WSW 16.1 mph 21.9 mph N/A   Scattered Clouds
2:14 PM 75.2 °F 48.2 °F 38% 29.80 in 10.0 mi WSW 10.4 mph 18.4 mph N/A   Clear
2:34 PM 75.2 °F 48.2 °F 38% 29.80 in 10.0 mi WSW 11.5 mph 21.9 mph N/A   Clear
2:54 PM 75.2 °F 50.0 °F 41% 29.79 in 10.0 mi SSW 20.7 mph 27.6 mph N/A   Scattered Clouds
3:14 PM 78.8 °F 51.8 °F 39% 29.78 in 10.0 mi SW 15.0 mph 27.6 mph N/A   Scattered Clouds
3:34 PM 77.0 °F 50.0 °F 39% 29.77 in 10.0 mi SW 11.5 mph 23.0 mph N/A   Scattered Clouds
3:54 PM 78.8 °F 48.2 °F 34% 29.77 in 10.0 mi SW 16.1 mph 25.3 mph N/A   Clear
4:14 PM 78.8 °F 46.4 °F 32% 29.76 in 10.0 mi WSW 17.3 mph 29.9 mph N/A   Clear
4:34 PM 78.8 °F 46.4 °F 32% 29.76 in 10.0 mi WSW 16.1 mph 31.1 mph N/A   Scattered Clouds
4:54 PM 78.8 °F 46.4 °F 32% 29.75 in 10.0 mi WSW 17.3 mph 27.6 mph N/A   Clear
5:14 PM 78.8 °F 48.2 °F 34% 29.75 in 10.0 mi WSW 16.1 mph 32.2 mph N/A   Clear
5:34 PM 78.8 °F 46.4 °F 32% 29.74 in 10.0 mi WSW 18.4 mph 28.8 mph N/A   Clear
5:54 PM 78.8 °F 46.4 °F 32% 29.74 in 10.0 mi WSW 16.1 mph 21.9 mph N/A   Scattered Clouds
6:14 PM 78.8 °F 46.4 °F 32% 29.73 in 10.0 mi West 13.8 mph 27.6 mph N/A   Clear
6:34 PM 77.0 °F 46.4 °F 34% 29.74 in 10.0 mi WSW 23.0 mph 32.2 mph N/A   Clear
6:54 PM 75.2 °F 48.2 °F 38% 29.74 in 10.0 mi West 18.4 mph 26.5 mph N/A   Clear
7:14 PM 75.2 °F 48.2 °F 38% 29.74 in 10.0 mi West 20.7 mph 25.3 mph N/A   Clear
7:33 PM 73.4 °F 46.4 °F 38% 29.75 in 10.0 mi West 17.3 mph 27.6 mph N/A   Clear
7:54 PM 73.4 °F 48.2 °F 41% 29.75 in 10.0 mi WSW 10.4 mph 17.3 mph N/A   Scattered Clouds
8:14 PM 73.4 °F 48.2 °F 41% 29.75 in 10.0 mi WSW 15.0 mph 18.4 mph N/A   Clear
8:34 PM 71.6 °F 48.2 °F 43% 29.75 in 10.0 mi WSW 10.4 mph - N/A   Clear
8:54 PM 69.8 °F 50.0 °F 49% 29.76 in 10.0 mi West 13.8 mph 18.4 mph N/A   Scattered Clouds
9:14 PM 66.2 °F 53.6 °F 64% 29.78 in 10.0 mi WSW 13.8 mph 23.0 mph N/A Rain Light Rain
9:34 PM 64.4 °F 51.8 °F 64% 29.77 in 10.0 mi WSW 8.1 mph 19.6 mph N/A   Scattered Clouds
9:54 PM 64.4 °F 51.8 °F 64% 29.78 in 10.0 mi West 5.8 mph - N/A   Scattered Clouds
10:14 PM 64.4 °F 51.8 °F 64% 29.78 in 10.0 mi West 4.6 mph - N/A   Clear
10:34 PM 60.8 °F 53.6 °F 77% 29.79 in 10.0 mi SW 8.1 mph - N/A   Clear
10:54 PM 60.8 °F 53.6 °F 77% 29.79 in 10.0 mi SW 4.6 mph - N/A   Mostly Cloudy
11:13 PM 60.8 °F 53.6 °F 77% 29.79 in 10.0 mi SW 4.6 mph - N/A   Scattered Clouds
11:34 PM 60.8 °F 51.8 °F 72% 29.79 in 10.0 mi WSW 5.8 mph - N/A   Clear
11:54 PM 59.0 °F 51.8 °F 77% 29.79 in 10.0 mi SW 6.9 mph - N/A   Clear